M I D A S
Marine Information and Data Acquisition System
Tripno 272 of the Zeeleeuw from 2002-05-02 06:36:12 to 2002-05-02 16:54:28
Back to CruiseResearch ActivitiesStationsMapUnderway DataData graphs

EquipmentUnitsComments
TimeDGPSUTC
LatitudeDGPSDM.mWGS84
LongitudeDGPSDM.mWGS84
SpeedMeteo Stationm/sRelative wind speed
DirectionMeteo StationdegRelative wind direction
TemperatureMeteo Stationdeg CelciusAir temperature
PressureMeteo StationPaAtmospheric pressure
HumidityMeteo Station%Relative humidity
Missing or incorrect values are displayed as -999
Metereological data collected by the RV Zeeleeuw from 2002-05-02 06:36:12 to 2002-05-02 16:54:28
                                                                                    Next 1000 lines
Time Latitude Longitude Speed Direction Temperature Pressure Humidity
2002-05-02 06:36:21 51°13.686 2°55.902 3.6 21 8.8 100540 83
2002-05-02 06:36:25 51°13.686 2°55.901 2.3 4 8.8 100540 83
2002-05-02 06:36:30 51°13.686 2°55.899 3.4 359 8.8 100530 83
2002-05-02 06:36:35 51°13.687 2°55.895 3.5 23 8.8 100530 83
2002-05-02 06:36:40 51°13.687 2°55.89 3.4 12 8.8 100530 83
2002-05-02 06:36:47 51°13.688 2°55.883 4.1 30 8.8 100530 83
2002-05-02 06:36:51 51°13.688 2°55.878 4.1 27 8.8 100540 82
2002-05-02 06:36:57 51°13.689 2°55.871 4 9 8.8 100540 82
2002-05-02 06:37:01 51°13.69 2°55.866 4.6 14 8.8 100530 82
2002-05-02 06:37:07 51°13.69 2°55.858 5.1 11 8.8 100530 82
2002-05-02 06:37:11 51°13.691 2°55.853 4.8 14 8.8 100540 82
2002-05-02 06:37:16 51°13.691 2°55.845 4.8 20 8.8 100540 82
2002-05-02 06:37:21 51°13.692 2°55.838 5.3 16 8.8 100540 82
2002-05-02 06:37:27 51°13.692 2°55.829 5.1 13 8.8 100540 82
2002-05-02 06:37:31 51°13.693 2°55.823 4.7 9 8.8 100540 82
2002-05-02 06:37:36 51°13.693 2°55.815 5.3 11 8.8 100540 82
2002-05-02 06:37:41 51°13.694 2°55.807 5.2 12 8.8 100540 82
2002-05-02 06:37:47 51°13.694 2°55.797 4.5 12 8.8 100540 82
2002-05-02 06:37:51 51°13.694 2°55.791 4.5 11 8.8 100540 82
2002-05-02 06:37:56 51°13.694 2°55.783 4.8 13 8.8 100540 82
2002-05-02 06:38:01 51°13.695 2°55.776 4.4 19 8.8 100540 82
2002-05-02 06:38:06 51°13.695 2°55.768 4.5 21 8.8 100540 82
2002-05-02 06:38:11 51°13.695 2°55.761 4.6 15 8.8 100540 82
2002-05-02 06:38:16 51°13.695 2°55.755 5.1 16 8.8 100540 82
2002-05-02 06:38:20 51°13.695 2°55.749 4.9 10 8.8 100540 82
2002-05-02 06:38:25 51°13.695 2°55.743 4.1 9 8.8 100540 82
2002-05-02 06:38:30 51°13.695 2°55.737 3.9 7 8.8 100540 82
2002-05-02 06:38:36 51°13.695 2°55.729 4.6 3 8.8 100540 82
2002-05-02 06:38:40 51°13.696 2°55.725 4.1 6 8.8 100540 83
2002-05-02 06:38:46 51°13.696 2°55.719 3.7 353 8.8 100540 83
2002-05-02 06:38:50 51°13.696 2°55.716 1.4 317 8.8 100540 82
2002-05-02 06:38:56 51°13.697 2°55.716 1.1 324 8.8 100540 82
2002-05-02 06:39:01 51°13.698 2°55.719 4.4 300 8.8 100540 82
2002-05-02 06:39:06 51°13.699 2°55.724 4.2 292 8.8 100540 82
2002-05-02 06:39:11 51°13.7 2°55.728 4.6 289 8.8 100540 82
2002-05-02 06:39:16 51°13.703 2°55.732 4.3 286 8.8 100540 82
2002-05-02 06:39:20 51°13.704 2°55.735 4.6 286 8.8 100540 82
2002-05-02 06:39:26 51°13.707 2°55.739 4.4 285 8.8 100540 82
2002-05-02 06:39:30 51°13.709 2°55.741 4 287 8.8 100530 82
2002-05-02 06:39:35 51°13.71 2°55.743 3.9 288 8.8 100530 82
2002-05-02 06:39:40 51°13.711 2°55.744 3.7 291 8.8 100540 82
2002-05-02 06:39:45 51°13.711 2°55.744 3.6 295 8.8 100540 82
2002-05-02 06:39:50 51°13.71 2°55.743 3.6 296 8.8 100540 82
2002-05-02 06:39:55 51°13.709 2°55.742 3.6 303 8.8 100540 82
2002-05-02 06:40:00 51°13.707 2°55.74 3.5 298 8.8 100540 82
2002-05-02 06:40:06 51°13.704 2°55.738 3.6 301 8.8 100540 82
2002-05-02 06:40:11 51°13.702 2°55.736 3 295 8.8 100530 82
2002-05-02 06:40:16 51°13.7 2°55.734 3.3 295 8.8 100530 82
2002-05-02 06:40:21 51°13.698 2°55.732 2.9 297 8.8 100540 83
2002-05-02 06:40:27 51°13.695 2°55.73 2.7 297 8.8 100540 83
2002-05-02 06:40:31 51°13.694 2°55.729 1.9 314 8.8 100540 83
2002-05-02 06:40:36 51°13.692 2°55.727 1.3 318 8.8 100540 83
2002-05-02 06:40:41 51°13.69 2°55.725 1.4 329 8.8 100540 83
2002-05-02 06:40:46 51°13.688 2°55.724 1.3 307 8.8 100540 83
2002-05-02 06:40:51 51°13.686 2°55.722 1.2 309 8.8 100540 83
2002-05-02 06:40:56 51°13.684 2°55.721 0.7 316 8.8 100540 83
2002-05-02 06:41:01 51°13.683 2°55.719 1.3 308 8.8 100540 83
2002-05-02 06:41:05 51°13.682 2°55.719 2 296 8.8 100540 83
2002-05-02 06:41:10 51°13.682 2°55.718 2.9 288 8.9 100540 83
2002-05-02 06:41:16 51°13.681 2°55.718 2.5 286 8.9 100540 83
2002-05-02 06:41:20 51°13.681 2°55.717 2.3 284 8.9 100540 83
2002-05-02 06:41:26 51°13.68 2°55.717 2.4 276 8.9 100540 83
2002-05-02 06:41:31 51°13.68 2°55.717 2.8 273 8.9 100540 83
2002-05-02 06:41:36 51°13.68 2°55.716 2.5 261 8.9 100540 83
2002-05-02 06:41:41 51°13.68 2°55.716 2.9 266 8.9 100540 83
2002-05-02 06:41:45 51°13.68 2°55.716 2.9 260 8.9 100540 83
2002-05-02 06:41:50 51°13.68 2°55.716 2.8 257 8.9 100540 83
2002-05-02 06:41:56 51°13.68 2°55.716 2.1 254 8.9 100540 83
2002-05-02 06:42:00 51°13.68 2°55.716 2 275 8.9 100540 83
2002-05-02 06:42:06 51°13.681 2°55.716 2.5 276 8.9 100540 83
2002-05-02 06:42:11 51°13.681 2°55.716 2.5 276 8.9 100540 83
2002-05-02 06:42:16 51°13.682 2°55.716 2.5 278 8.9 100540 83
2002-05-02 06:42:20 51°13.682 2°55.716 2.8 276 8.9 100540 83
2002-05-02 06:42:25 51°13.683 2°55.716 2.5 266 8.9 100540 83
2002-05-02 06:42:30 51°13.683 2°55.716 3.1 240 8.9 100540 83
2002-05-02 06:42:36 51°13.684 2°55.716 3.7 247 8.9 100540 83
2002-05-02 06:42:40 51°13.685 2°55.715 4 246 8.9 100540 83
2002-05-02 06:42:46 51°13.686 2°55.715 3.6 245 8.9 100540 83
2002-05-02 06:42:50 51°13.686 2°55.715 3.4 238 8.9 100540 83
2002-05-02 06:42:56 51°13.687 2°55.714 3.3 233 8.9 100540 83
2002-05-02 06:43:00 51°13.688 2°55.714 3 259 8.9 100540 83
2002-05-02 06:43:06 51°13.689 2°55.713 3.1 244 8.9 100540 83
2002-05-02 06:43:10 51°13.69 2°55.713 2.4 250 8.9 100540 83
2002-05-02 06:43:16 51°13.691 2°55.712 2.3 245 8.9 100540 83
2002-05-02 06:43:20 51°13.692 2°55.712 3.5 242 8.9 100540 83
2002-05-02 06:43:26 51°13.693 2°55.711 3.5 256 8.9 100540 83
2002-05-02 06:43:31 51°13.694 2°55.711 2.8 252 8.9 100540 83
2002-05-02 06:43:35 51°13.695 2°55.71 3.1 256 8.9 100540 83
2002-05-02 06:43:40 51°13.697 2°55.71 2.8 250 8.9 100550 83
2002-05-02 06:43:46 51°13.699 2°55.708 2.2 240 8.9 100550 83
2002-05-02 06:43:50 51°13.7 2°55.708 2.9 225 8.9 100540 83
2002-05-02 06:43:56 51°13.702 2°55.706 2.8 234 8.9 100540 83
2002-05-02 06:44:00 51°13.704 2°55.705 3.5 230 8.9 100540 83
2002-05-02 06:44:06 51°13.706 2°55.704 3.7 230 8.9 100540 83
2002-05-02 06:44:11 51°13.708 2°55.702 3.9 227 8.9 100550 83
2002-05-02 06:44:16 51°13.71 2°55.701 3.9 238 8.9 100550 83
2002-05-02 06:44:20 51°13.713 2°55.7 3.8 248 8.9 100540 83
2002-05-02 06:44:26 51°13.716 2°55.697 4.5 237 8.9 100540 83
2002-05-02 06:44:31 51°13.719 2°55.695 4.2 229 8.9 100550 83
2002-05-02 06:44:36 51°13.723 2°55.692 4.5 236 8.9 100550 83
2002-05-02 06:44:40 51°13.726 2°55.69 4.5 238 8.9 100550 83
2002-05-02 06:44:45 51°13.73 2°55.687 4.5 238 8.9 100550 83
2002-05-02 06:44:51 51°13.736 2°55.683 3.9 245 8.9 100540 83
2002-05-02 06:44:56 51°13.74 2°55.68 3.7 236 8.9 100540 83
2002-05-02 06:45:00 51°13.745 2°55.678 4.5 248 8.9 100540 83
2002-05-02 06:45:05 51°13.75 2°55.674 4.9 242 8.9 100540 83
2002-05-02 06:45:11 51°13.756 2°55.671 5.1 241 8.9 100540 83
2002-05-02 06:45:16 51°13.762 2°55.667 5.7 239 8.9 100540 83
2002-05-02 06:45:20 51°13.767 2°55.665 5.6 239 9 100550 83
2002-05-02 06:45:25 51°13.773 2°55.661 5.4 244 9 100550 83
2002-05-02 06:45:31 51°13.78 2°55.657 5.7 238 8.9 100540 83
2002-05-02 06:45:36 51°13.787 2°55.654 5.5 236 8.9 100540 83
2002-05-02 06:45:41 51°13.793 2°55.65 6.4 238 8.9 100540 83
2002-05-02 06:45:45 51°13.799 2°55.647 5.6 232 8.9 100540 83
2002-05-02 06:45:50 51°13.805 2°55.643 5.2 238 8.9 100550 83
2002-05-02 06:45:56 51°13.813 2°55.638 6.2 234 8.9 100550 83
2002-05-02 06:46:00 51°13.819 2°55.635 5.5 233 8.9 100540 83
2002-05-02 06:46:06 51°13.827 2°55.629 6.1 228 8.9 100540 83
2002-05-02 06:46:10 51°13.833 2°55.625 6 234 9 100540 83
2002-05-02 06:46:16 51°13.841 2°55.62 6.5 237 9 100540 83
2002-05-02 06:46:20 51°13.847 2°55.616 5.9 230 8.9 100550 83
2002-05-02 06:46:25 51°13.854 2°55.611 6.4 232 8.9 100550 83
2002-05-02 06:46:30 51°13.861 2°55.605 6.2 234 9 100540 83
2002-05-02 06:46:36 51°13.869 2°55.599 6.3 233 9 100540 83
2002-05-02 06:46:40 51°13.875 2°55.595 5.3 235 9 100540 83
2002-05-02 06:46:45 51°13.882 2°55.589 6.1 236 9 100540 83
2002-05-02 06:46:51 51°13.891 2°55.583 6.7 239 9 100550 83
2002-05-02 06:46:56 51°13.898 2°55.577 6.3 247 9 100550 83
2002-05-02 06:47:00 51°13.904 2°55.573 6 233 9 100550 83
2002-05-02 06:47:05 51°13.911 2°55.568 5.9 243 9 100550 83
2002-05-02 06:47:10 51°13.919 2°55.563 5.7 235 9 100550 83
2002-05-02 06:47:15 51°13.926 2°55.558 5.7 237 9 100550 83
2002-05-02 06:47:20 51°13.934 2°55.553 5.7 233 9 100550 83
2002-05-02 06:47:26 51°13.943 2°55.548 6 239 9 100550 83
2002-05-02 06:47:30 51°13.949 2°55.544 5.3 242 9 100550 83
2002-05-02 06:47:36 51°13.958 2°55.539 6.5 236 9 100550 83
2002-05-02 06:47:40 51°13.965 2°55.535 6.3 242 9 100550 83
2002-05-02 06:47:45 51°13.972 2°55.53 5.8 234 9 100550 83
2002-05-02 06:47:50 51°13.98 2°55.526 6 240 9 100550 83
2002-05-02 06:47:56 51°13.989 2°55.52 7 234 9 100550 83
2002-05-02 06:48:00 51°13.995 2°55.517 7.3 239 9 100540 83
2002-05-02 06:48:05 51°14.003 2°55.512 7.4 239 9 100540 83
2002-05-02 06:48:10 51°14.01 2°55.507 6.8 239 9 100550 83
2002-05-02 06:48:16 51°14.019 2°55.501 7.1 237 9 100550 83
2002-05-02 06:48:20 51°14.026 2°55.497 7.5 238 9 100550 83
2002-05-02 06:48:26 51°14.035 2°55.491 6.9 238 9 100550 83
2002-05-02 06:48:30 51°14.041 2°55.487 6.9 241 9 100540 83
2002-05-02 06:48:36 51°14.05 2°55.48 7.1 242 9 100540 83
2002-05-02 06:48:40 51°14.056 2°55.476 6.9 242 8.9 100540 83
2002-05-02 06:48:46 51°14.066 2°55.47 6.6 242 8.9 100540 83
2002-05-02 06:48:51 51°14.073 2°55.465 6.6 241 8.9 100540 82
2002-05-02 06:48:56 51°14.081 2°55.461 6.5 242 8.9 100540 82
2002-05-02 06:49:00 51°14.087 2°55.457 6.5 240 8.9 100550 82
2002-05-02 06:49:06 51°14.096 2°55.451 6.3 240 8.9 100550 82
2002-05-02 06:49:10 51°14.102 2°55.447 6.4 238 8.9 100540 82
2002-05-02 06:49:16 51°14.112 2°55.441 6.7 234 8.9 100540 82
2002-05-02 06:49:20 51°14.118 2°55.437 6.4 237 8.9 100550 82
2002-05-02 06:49:26 51°14.127 2°55.431 5.9 239 8.9 100550 82
2002-05-02 06:49:31 51°14.135 2°55.426 6.4 237 8.9 100540 83
2002-05-02 06:49:36 51°14.142 2°55.421 5.8 238 8.9 100540 83
2002-05-02 06:49:41 51°14.15 2°55.416 6.1 242 8.9 100550 83
2002-05-02 06:49:45 51°14.156 2°55.412 6.3 237 8.9 100550 83
2002-05-02 06:49:50 51°14.163 2°55.406 6.3 236 8.9 100550 83
2002-05-02 06:49:56 51°14.172 2°55.399 5.8 238 8.9 100550 83
2002-05-02 06:50:00 51°14.178 2°55.394 6 233 8.9 100550 83
2002-05-02 06:50:06 51°14.186 2°55.386 5.5 242 8.9 100550 83
2002-05-02 06:50:11 51°14.193 2°55.379 5.6 236 8.9 100550 83
2002-05-02 06:50:16 51°14.2 2°55.372 5.8 236 8.9 100550 83
2002-05-02 06:50:20 51°14.205 2°55.367 5.7 226 8.9 100550 83
2002-05-02 06:50:26 51°14.214 2°55.358 6.2 224 8.9 100550 83
2002-05-02 06:50:30 51°14.219 2°55.352 5.6 234 8.9 100550 83
2002-05-02 06:50:36 51°14.227 2°55.342 5.5 132 8.9 100550 83
2002-05-02 06:50:40 51°14.232 2°55.335 5.5 226 8.9 100550 83
2002-05-02 06:50:45 51°14.238 2°55.327 6.4 228 8.9 100550 83
2002-05-02 06:50:51 51°14.245 2°55.316 6.3 226 8.9 100550 83
2002-05-02 06:50:56 51°14.251 2°55.307 6.7 315 8.9 100550 83
2002-05-02 06:51:00 51°14.256 2°55.299 6.4 225 8.9 100550 83
2002-05-02 06:51:05 51°14.261 2°55.29 5.7 225 8.9 100550 83
2002-05-02 06:51:10 51°14.267 2°55.28 6.1 224 8.9 100550 83
2002-05-02 06:51:15 51°14.272 2°55.269 5.7 230 8.9 100550 83
2002-05-02 06:51:20 51°14.277 2°55.259 5.2 231 8.9 100550 83
2002-05-02 06:51:26 51°14.284 2°55.247 5.4 224 8.9 100550 83
2002-05-02 06:51:30 51°14.288 2°55.238 6 227 8.9 100550 83
2002-05-02 06:51:36 51°14.294 2°55.225 6.3 222 8.9 100550 83
2002-05-02 06:51:40 51°14.298 2°55.217 6.2 221 8.9 100550 83
2002-05-02 06:51:46 51°14.304 2°55.204 5.9 219 8.9 100550 83
2002-05-02 06:51:51 51°14.309 2°55.193 6.6 223 8.9 100550 83
2002-05-02 06:51:56 51°14.313 2°55.181 7.1 223 8.9 100550 83
2002-05-02 06:52:01 51°14.318 2°55.17 7.5 220 8.9 100550 83
2002-05-02 06:52:06 51°14.322 2°55.159 7 218 8.9 100550 83
2002-05-02 06:52:10 51°14.326 2°55.149 6.2 217 8.9 100550 83
2002-05-02 06:52:15 51°14.331 2°55.138 7.2 219 8.9 100550 83
2002-05-02 06:52:20 51°14.336 2°55.127 6.7 219 8.9 100550 83
2002-05-02 06:52:25 51°14.34 2°55.115 7.3 220 8.9 100550 83
2002-05-02 06:52:31 51°14.346 2°55.101 6.5 219 8.9 100550 83
2002-05-02 06:52:36 51°14.35 2°55.089 7 218 8.9 100550 83
2002-05-02 06:52:40 51°14.354 2°55.079 7.7 221 8.9 100550 83
2002-05-02 06:52:45 51°14.359 2°55.065 6.8 222 8.9 100550 83
2002-05-02 06:52:51 51°14.365 2°55.047 8 219 8.9 100550 83
2002-05-02 06:52:55 51°14.37 2°55.034 8.2 219 8.9 100550 83
2002-05-02 06:53:00 51°14.376 2°55.017 8.8 222 8.9 100540 83
2002-05-02 06:53:06 51°14.384 2°54.994 9.2 225 8.9 100540 83
2002-05-02 06:53:11 51°14.39 2°54.974 10.3 224 8.9 100550 83
2002-05-02 06:53:15 51°14.396 2°54.957 10.2 222 8.9 100550 83
2002-05-02 06:53:20 51°14.403 2°54.936 9.6 222 8.9 100550 83
2002-05-02 06:53:25 51°14.41 2°54.914 9.3 222 8.9 100550 83
2002-05-02 06:53:31 51°14.419 2°54.887 9.2 135 8.9 100550 83
2002-05-02 06:53:36 51°14.427 2°54.864 8.8 224 8.9 100550 83
2002-05-02 06:53:40 51°14.434 2°54.845 9.3 225 8.9 100540 83
2002-05-02 06:53:45 51°14.442 2°54.822 10.4 225 8.9 100540 83
2002-05-02 06:53:50 51°14.45 2°54.799 9.1 221 8.9 100540 83
2002-05-02 06:53:56 51°14.461 2°54.771 10 223 8.9 100540 83
2002-05-02 06:54:01 51°14.469 2°54.748 10 221 8.9 100540 83
2002-05-02 06:54:06 51°14.478 2°54.725 8.8 220 8.9 100540 83
2002-05-02 06:54:10 51°14.485 2°54.706 9 223 8.9 100540 83
2002-05-02 06:54:15 51°14.494 2°54.683 10.2 225 8.9 100540 83
2002-05-02 06:54:21 51°14.504 2°54.656 10.6 224 8.9 100550 83
2002-05-02 06:54:26 51°14.513 2°54.632 10.6 223 8.9 100550 83
2002-05-02 06:54:30 51°14.52 2°54.614 10.4 221 8.9 100550 83
2002-05-02 06:54:36 51°14.53 2°54.586 10.4 221 8.9 100550 83
2002-05-02 06:54:40 51°14.537 2°54.567 10.5 220 9 100550 83
2002-05-02 06:54:46 51°14.547 2°54.539 10.9 223 9 100550 83
2002-05-02 06:54:50 51°14.555 2°54.521 9.5 219 9 100540 83
2002-05-02 06:54:55 51°14.563 2°54.498 9.8 218 9 100540 83
2002-05-02 06:55:00 51°14.572 2°54.475 9.1 220 8.9 100540 83
2002-05-02 06:55:06 51°14.582 2°54.447 10 219 8.9 100540 83
2002-05-02 06:55:10 51°14.589 2°54.429 9.8 219 8.9 100540 83
2002-05-02 06:55:16 51°14.6 2°54.401 9.8 220 8.9 100540 83
2002-05-02 06:55:21 51°14.608 2°54.378 9.6 223 8.9 100540 83
2002-05-02 06:55:26 51°14.617 2°54.355 10 224 8.9 100540 83
2002-05-02 06:55:30 51°14.624 2°54.337 11 222 8.9 100540 82
2002-05-02 06:55:36 51°14.634 2°54.309 10.7 221 8.9 100540 82
2002-05-02 06:55:40 51°14.641 2°54.29 10.3 222 9 100540 83
2002-05-02 06:55:46 51°14.651 2°54.263 10.5 225 9 100540 83
2002-05-02 06:55:50 51°14.658 2°54.244 9.6 226 9 100540 83
2002-05-02 06:55:56 51°14.669 2°54.216 10.7 223 9 100540 83
2002-05-02 06:56:00 51°14.676 2°54.198 9.8 222 9 100540 83
2002-05-02 06:56:06 51°14.686 2°54.171 10.2 224 9 100540 83
2002-05-02 06:56:10 51°14.693 2°54.152 9.3 225 9 100540 83
2002-05-02 06:56:16 51°14.704 2°54.125 9.8 223 9 100540 83
2002-05-02 06:56:20 51°14.711 2°54.106 9.8 221 9 100540 83
2002-05-02 06:56:26 51°14.722 2°54.079 8.8 223 9 100540 83
2002-05-02 06:56:30 51°14.729 2°54.06 9.8 223 9 100540 83
2002-05-02 06:56:36 51°14.74 2°54.033 9.1 225 9 100540 83
2002-05-02 06:56:41 51°14.748 2°54.011 10.4 221 9 100550 82
2002-05-02 06:56:46 51°14.757 2°53.988 9.6 219 9 100550 82
2002-05-02 06:56:50 51°14.765 2°53.97 9.5 223 9 100540 83
2002-05-02 06:56:56 51°14.775 2°53.943 10.2 223 9 100540 83
2002-05-02 06:57:00 51°14.783 2°53.925 9.6 221 9 100550 83
2002-05-02 06:57:06 51°14.793 2°53.898 10.4 219 9 100550 83
2002-05-02 06:57:11 51°14.802 2°53.876 9.2 220 9 100540 83
2002-05-02 06:57:16 51°14.81 2°53.852 10 219 9 100540 83
2002-05-02 06:57:20 51°14.816 2°53.834 8.9 217 9 100550 83
2002-05-02 06:57:26 51°14.824 2°53.805 8.7 214 9 100550 83
2002-05-02 06:57:31 51°14.832 2°53.781 9 213 9 100540 83
2002-05-02 06:57:36 51°14.838 2°53.757 9.7 213 9 100540 83
2002-05-02 06:57:41 51°14.846 2°53.732 9.4 215 9 100540 83
2002-05-02 06:57:46 51°14.853 2°53.707 9 216 9 100540 83
2002-05-02 06:57:51 51°14.861 2°53.683 9.9 223 9 100540 82
2002-05-02 06:57:56 51°14.868 2°53.658 10 223 9 100540 82
2002-05-02 06:58:00 51°14.874 2°53.638 9.4 223 9 100540 82
2002-05-02 06:58:06 51°14.883 2°53.608 9.1 212 9 100540 82
2002-05-02 06:58:11 51°14.89 2°53.583 9.8 216 9 100540 82
2002-05-02 06:58:16 51°14.898 2°53.558 10.4 216 9 100540 82
2002-05-02 06:58:21 51°14.905 2°53.534 11.4 216 9 100540 83
2002-05-02 06:58:26 51°14.913 2°53.509 11.2 222 9 100540 83
2002-05-02 06:58:30 51°14.92 2°53.489 11.4 224 9 100540 83
2002-05-02 06:58:36 51°14.93 2°53.459 11.9 222 9 100540 83
2002-05-02 06:58:41 51°14.938 2°53.434 11.5 218 9 100540 83
2002-05-02 06:58:45 51°14.945 2°53.414 11.6 214 9 100540 83
2002-05-02 06:58:50 51°14.953 2°53.388 10.1 219 9 100540 83
2002-05-02 06:58:55 51°14.961 2°53.363 10.7 219 9 100540 83
2002-05-02 06:59:00 51°14.97 2°53.338 12.1 220 9 100540 83
2002-05-02 06:59:06 51°14.98 2°53.307 10.9 221 9 100540 83
2002-05-02 06:59:11 51°14.988 2°53.282 12.1 222 9 100540 83
2002-05-02 06:59:15 51°14.995 2°53.262 11.5 219 9 100540 83
2002-05-02 06:59:20 51°15.003 2°53.236 12.9 222 9 100540 83
2002-05-02 06:59:26 51°15.013 2°53.205 13 221 9 100540 83
2002-05-02 06:59:31 51°15.021 2°53.18 11.4 220 9 100540 83
2002-05-02 06:59:36 51°15.029 2°53.154 11.4 220 9 100540 83
2002-05-02 06:59:40 51°15.036 2°53.134 12.2 222 9 100540 82
2002-05-02 06:59:46 51°15.046 2°53.103 11.9 221 9 100540 82
2002-05-02 06:59:50 51°15.052 2°53.083 11.6 224 9 100530 82
2002-05-02 06:59:55 51°15.061 2°53.058 12.3 219 9 100530 82
2002-05-02 07:00:00 51°15.069 2°53.032 11.9 219 9 100540 81
2002-05-02 07:00:06 51°15.079 2°53.002 12 221 9 100540 81
2002-05-02 07:00:11 51°15.087 2°52.976 11.8 218 9 100540 81
2002-05-02 07:00:16 51°15.095 2°52.95 11 217 9 100540 81
2002-05-02 07:00:20 51°15.102 2°52.93 11.3 219 9 100540 81
2002-05-02 07:00:26 51°15.111 2°52.899 11.7 218 9 100540 81
2002-05-02 07:00:30 51°15.118 2°52.879 11.6 219 9 100540 81
2002-05-02 07:00:36 51°15.128 2°52.848 11.7 219 9 100540 81
2002-05-02 07:00:41 51°15.136 2°52.822 12 218 9 100540 81
2002-05-02 07:00:46 51°15.144 2°52.797 10.7 217 9 100540 81
2002-05-02 07:00:50 51°15.151 2°52.776 11.5 216 9 100540 81
2002-05-02 07:00:56 51°15.16 2°52.745 11.5 216 9 100540 81
2002-05-02 07:01:00 51°15.167 2°52.725 12.1 219 9 100540 81
2002-05-02 07:01:06 51°15.177 2°52.694 11.5 219 9 100540 81
2002-05-02 07:01:11 51°15.185 2°52.668 11.2 221 9 100540 80
2002-05-02 07:01:16 51°15.193 2°52.642 11.1 220 9 100540 80
2002-05-02 07:01:21 51°15.202 2°52.617 11.2 221 9 100540 80
2002-05-02 07:01:26 51°15.21 2°52.592 10.2 222 9 100540 80
2002-05-02 07:01:30 51°15.216 2°52.572 10.1 220 9 100540 80
2002-05-02 07:01:35 51°15.224 2°52.546 10 215 9 100540 80
2002-05-02 07:01:40 51°15.232 2°52.521 10.8 220 9 100530 80
2002-05-02 07:01:46 51°15.242 2°52.491 11.2 220 9 100530 80
2002-05-02 07:01:51 51°15.25 2°52.466 11.1 221 9 100540 80
2002-05-02 07:01:56 51°15.258 2°52.441 11.7 221 9 100540 80
2002-05-02 07:02:00 51°15.265 2°52.42 11.2 221 9 100540 80
2002-05-02 07:02:06 51°15.275 2°52.389 12.2 220 9 100540 80
2002-05-02 07:02:11 51°15.284 2°52.363 10.9 218 9 100540 81
2002-05-02 07:02:16 51°15.292 2°52.337 10.7 218 9 100540 81
2002-05-02 07:02:20 51°15.299 2°52.316 10.8 216 9 100540 81
2002-05-02 07:02:26 51°15.309 2°52.284 11.9 220 9 100540 81
2002-05-02 07:02:31 51°15.318 2°52.258 11.2 223 9 100540 80
2002-05-02 07:02:36 51°15.327 2°52.232 11.2 224 9 100540 80
2002-05-02 07:02:40 51°15.333 2°52.212 12.5 220 9 100540 80
2002-05-02 07:02:46 51°15.344 2°52.181 11.7 222 9 100540 80
2002-05-02 07:02:50 51°15.35 2°52.161 11.6 223 9 100540 80
2002-05-02 07:02:56 51°15.36 2°52.131 10.6 221 9 100540 80
2002-05-02 07:03:01 51°15.369 2°52.106 11.5 218 9 100540 80
2002-05-02 07:03:06 51°15.377 2°52.081 10.5 215 9 100540 80
2002-05-02 07:03:10 51°15.384 2°52.061 12.2 216 9 100540 80
2002-05-02 07:03:15 51°15.392 2°52.037 12.1 217 9 100540 80
2002-05-02 07:03:20 51°15.4 2°52.013 11.9 218 9 100540 80
2002-05-02 07:03:26 51°15.41 2°51.984 12.6 220 9 100540 80
2002-05-02 07:03:31 51°15.418 2°51.959 12.2 219 9 100540 80
2002-05-02 07:03:36 51°15.426 2°51.935 12.2 217 9 100540 80
2002-05-02 07:03:40 51°15.432 2°51.916 11.1 220 9 100540 80
2002-05-02 07:03:45 51°15.44 2°51.892 11 219 9 100540 80
2002-05-02 07:03:51 51°15.45 2°51.863 10.5 220 9 100540 80
2002-05-02 07:03:55 51°15.456 2°51.843 11.8 220 9 100540 80
2002-05-02 07:04:01 51°15.466 2°51.815 11.3 221 9 100540 79
2002-05-02 07:04:05 51°15.472 2°51.795 11 220 9 100540 79
2002-05-02 07:04:10 51°15.48 2°51.771 11.4 219 9 100530 79
2002-05-02 07:04:15 51°15.488 2°51.747 10.8 217 9 100530 79
2002-05-02 07:04:20 51°15.496 2°51.723 11.4 216 9 100540 79
2002-05-02 07:04:26 51°15.506 2°51.694 10.4 217 9 100540 79
2002-05-02 07:04:31 51°15.514 2°51.67 10.7 219 9 100540 79
2002-05-02 07:04:36 51°15.522 2°51.646 11.4 218 9 100540 79
2002-05-02 07:04:40 51°15.528 2°51.627 11.1 216 9 100540 79
2002-05-02 07:04:45 51°15.536 2°51.603 10.2 219 9 100540 79
2002-05-02 07:04:51 51°15.546 2°51.574 11 220 9 100540 79
2002-05-02 07:04:56 51°15.554 2°51.55 11.2 220 9 100540 79
2002-05-02 07:05:00 51°15.56 2°51.53 10.8 222 9 100540 79
2002-05-02 07:05:06 51°15.57 2°51.502 11.1 222 9 100540 79
2002-05-02 07:05:10 51°15.576 2°51.482 10.2 224 9 100540 79
2002-05-02 07:05:15 51°15.584 2°51.458 10.7 223 9 100540 79
2002-05-02 07:05:20 51°15.592 2°51.434 11.6 223 9 100540 79
2002-05-02 07:05:26 51°15.602 2°51.405 11.3 222 9 100540 79
2002-05-02 07:05:30 51°15.608 2°51.386 11.4 222 9 100550 79
2002-05-02 07:05:35 51°15.616 2°51.362 11.6 223 9 100550 79
2002-05-02 07:05:40 51°15.624 2°51.338 11.6 224 9 100540 79
2002-05-02 07:05:45 51°15.633 2°51.314 10.9 224 9 100540 79
2002-05-02 07:05:51 51°15.642 2°51.285 10.7 220 9 100550 79
2002-05-02 07:05:56 51°15.649 2°51.26 11.6 221 9 100550 79
2002-05-02 07:06:00 51°15.654 2°51.24 11.9 217 9 100540 78
2002-05-02 07:06:06 51°15.663 2°51.209 10.9 221 9 100540 78
2002-05-02 07:06:10 51°15.668 2°51.189 11.8 219 9 100540 78
2002-05-02 07:06:16 51°15.676 2°51.157 11.3 221 9 100540 78
2002-05-02 07:06:20 51°15.681 2°51.136 10.9 221 9 100550 79
2002-05-02 07:06:26 51°15.689 2°51.104 12.3 221 9 100550 79
2002-05-02 07:06:31 51°15.695 2°51.078 12.2 220 9 100540 79
2002-05-02 07:06:36 51°15.702 2°51.051 12.7 219 9 100540 79
2002-05-02 07:06:40 51°15.707 2°51.03 12.7 218 9 100540 79
2002-05-02 07:06:46 51°15.715 2°50.998 12.4 215 9 100540 79
2002-05-02 07:06:50 51°15.721 2°50.977 11.2 216 9 100540 79
2002-05-02 07:06:56 51°15.729 2°50.946 11.7 218 9 100540 79
2002-05-02 07:07:01 51°15.736 2°50.919 10.8 218 9 100540 79
2002-05-02 07:07:06 51°15.743 2°50.893 10.7 218 9 100540 79
2002-05-02 07:07:10 51°15.749 2°50.872 10.3 219 9.1 100540 79
2002-05-02 07:07:15 51°15.756 2°50.846 11.4 216 9.1 100540 79
2002-05-02 07:07:20 51°15.763 2°50.819 10.3 217 9 100540 79
2002-05-02 07:07:26 51°15.771 2°50.787 11 217 9 100540 79
2002-05-02 07:07:30 51°15.776 2°50.766 10.4 213 9 100540 79
2002-05-02 07:07:36 51°15.781 2°50.733 9.7 212 9 100540 79
2002-05-02 07:07:40 51°15.784 2°50.711 9.3 210 9 100540 78
2002-05-02 07:07:45 51°15.786 2°50.683 9.3 212 9 100540 78
2002-05-02 07:07:51 51°15.787 2°50.649 9.7 213 9 100550 78
2002-05-02 07:07:55 51°15.788 2°50.626 9.3 206 9 100550 78
2002-05-02 07:08:00 51°15.788 2°50.598 9.8 208 9 100540 78
2002-05-02 07:08:05 51°15.787 2°50.569 9.2 205 9 100540 78
2002-05-02 07:08:10 51°15.787 2°50.541 9.4 205 9 100550 78
2002-05-02 07:08:16 51°15.786 2°50.507 10 204 9 100550 78
2002-05-02 07:08:21 51°15.785 2°50.478 8.4 210 9 100550 78
2002-05-02 07:08:26 51°15.785 2°50.45 10.6 213 9 100550 78
2002-05-02 07:08:30 51°15.785 2°50.427 9.7 215 9 100550 78
2002-05-02 07:08:36 51°15.785 2°50.393 10.8 213 9 100550 78
2002-05-02 07:08:41 51°15.786 2°50.364 10.2 214 9 100550 78
2002-05-02 07:08:46 51°15.786 2°50.335 10.3 212 9 100550 78
2002-05-02 07:08:51 51°15.788 2°50.307 10.2 212 9 100550 78
2002-05-02 07:08:55 51°15.789 2°50.284 9.4 213 9 100550 78
2002-05-02 07:09:01 51°15.79 2°50.25 10.2 212 9 100550 78
2002-05-02 07:09:05 51°15.792 2°50.227 10.1 213 9 100550 78
2002-05-02 07:09:10 51°15.793 2°50.198 9.8 216 9 100540 77
2002-05-02 07:09:16 51°15.795 2°50.162 10 214 9 100540 77
2002-05-02 07:09:21 51°15.797 2°50.133 10.8 212 9 100540 77
2002-05-02 07:09:26 51°15.798 2°50.103 11.6 213 9 100540 77
2002-05-02 07:09:30 51°15.8 2°50.079 10.5 212 9 100550 77
2002-05-02 07:09:36 51°15.802 2°50.043 10.3 211 9 100550 77
2002-05-02 07:09:40 51°15.803 2°50.019 9.7 211 9 100550 78
2002-05-02 07:09:46 51°15.805 2°49.983 9.5 211 9 100550 78
2002-05-02 07:09:51 51°15.806 2°49.952 10 211 9 100550 78
2002-05-02 07:09:56 51°15.808 2°49.922 10.8 213 9 100550 78
2002-05-02 07:10:01 51°15.809 2°49.892 9.8 212 9 100540 78
2002-05-02 07:10:06 51°15.811 2°49.862 10.1 216 9 100540 78
2002-05-02 07:10:11 51°15.812 2°49.832 10.1 210 9 100550 77
2002-05-02 07:10:16 51°15.814 2°49.802 10 213 9 100550 77
2002-05-02 07:10:20 51°15.815 2°49.778 11.3 216 9 100540 77
2002-05-02 07:10:25 51°15.817 2°49.747 11.7 215 9 100540 77
2002-05-02 07:10:31 51°15.819 2°49.711 11.6 220 9 100550 78
2002-05-02 07:10:36 51°15.82 2°49.681 11.9 220 9 100550 78
2002-05-02 07:10:40 51°15.821 2°49.657 11.2 218 9 100550 78
2002-05-02 07:10:45 51°15.823 2°49.627 11.4 219 9 100550 78
2002-05-02 07:10:50 51°15.825 2°49.597 10.4 220 9.1 100550 78
2002-05-02 07:10:55 51°15.826 2°49.567 10.7 220 9.1 100550 78
2002-05-02 07:11:01 51°15.828 2°49.531 10.2 221 9 100550 78
2002-05-02 07:11:05 51°15.829 2°49.506 10.4 216 9 100550 78
2002-05-02 07:11:11 51°15.831 2°49.47 11 218 9 100550 77
2002-05-02 07:11:16 51°15.832 2°49.44 11.3 216 9 100550 77
2002-05-02 07:11:20 51°15.834 2°49.416 11.1 222 9 100550 77
2002-05-02 07:11:26 51°15.835 2°49.38 9.9 220 9 100550 77
2002-05-02 07:11:31 51°15.837 2°49.35 10.8 221 9 100560 77
2002-05-02 07:11:35 51°15.838 2°49.326 10.7 218 9 100560 77
2002-05-02 07:11:41 51°15.841 2°49.289 11.2 220 9 100550 77
2002-05-02 07:11:46 51°15.842 2°49.259 10.8 218 9 100550 77
2002-05-02 07:11:51 51°15.845 2°49.229 11.3 221 9 100560 77
2002-05-02 07:11:56 51°15.847 2°49.199 11.8 217 9 100560 77
2002-05-02 07:12:00 51°15.849 2°49.175 11.2 218 9 100550 77
2002-05-02 07:12:05 51°15.851 2°49.145 10.6 221 9 100550 77
2002-05-02 07:12:11 51°15.853 2°49.109 11.7 217 9 100550 77
2002-05-02 07:12:15 51°15.855 2°49.085 10.6 214 9 100550 77
2002-05-02 07:12:20 51°15.858 2°49.054 11.4 216 9 100550 77
2002-05-02 07:12:26 51°15.861 2°49.018 11.4 217 9 100550 77
2002-05-02 07:12:30 51°15.862 2°48.993 12.2 219 9 100560 77
2002-05-02 07:12:35 51°15.865 2°48.963 11.4 217 9 100560 77
2002-05-02 07:12:40 51°15.867 2°48.933 11.7 216 9 100560 77
2002-05-02 07:12:46 51°15.87 2°48.897 11.7 214 9 100560 77
2002-05-02 07:12:51 51°15.872 2°48.866 10.9 217 9 100550 77
2002-05-02 07:12:56 51°15.874 2°48.836 10.3 213 9 100550 77
2002-05-02 07:13:00 51°15.876 2°48.812 11.6 216 9 100550 77
2002-05-02 07:13:06 51°15.879 2°48.775 10.6 215 9 100550 77
2002-05-02 07:13:10 51°15.881 2°48.751 10.1 216 9 100550 76
2002-05-02 07:13:16 51°15.883 2°48.714 11.7 216 9 100550 76
2002-05-02 07:13:21 51°15.885 2°48.684 11.1 214 9 100550 76
2002-05-02 07:13:26 51°15.888 2°48.654 11.4 215 9 100550 76
2002-05-02 07:13:31 51°15.89 2°48.623 11 215 9 100550 76
2002-05-02 07:13:35 51°15.892 2°48.599 10.1 217 9 100550 76
2002-05-02 07:13:40 51°15.894 2°48.569 11.4 215 9 100550 76
2002-05-02 07:13:46 51°15.896 2°48.532 10.4 213 9 100550 76
2002-05-02 07:13:50 51°15.899 2°48.508 10.6 215 9 100550 77
2002-05-02 07:13:56 51°15.901 2°48.471 11 219 9 100550 77
2002-05-02 07:14:01 51°15.904 2°48.441 11.7 220 9 100550 76
2002-05-02 07:14:06 51°15.908 2°48.411 11.2 221 9 100550 76
2002-05-02 07:14:10 51°15.911 2°48.387 10.4 218 9 100550 76
2002-05-02 07:14:16 51°15.917 2°48.352 11.4 224 9 100550 76
2002-05-02 07:14:20 51°15.921 2°48.328 11.3 218 9 100550 76
2002-05-02 07:14:26 51°15.929 2°48.294 11 217 9 100550 76
2002-05-02 07:14:30 51°15.933 2°48.27 11.4 216 9 100560 76
2002-05-02 07:14:36 51°15.942 2°48.236 12 223 9 100560 76
2002-05-02 07:14:41 51°15.948 2°48.207 12.6 220 9 100560 76
2002-05-02 07:14:46 51°15.955 2°48.179 11.4 222 9 100560 76
2002-05-02 07:14:51 51°15.962 2°48.15 11.4 217 9 100550 76
2002-05-02 07:14:56 51°15.969 2°48.122 11.5 223 9 100550 76
2002-05-02 07:15:01 51°15.975 2°48.093 11.3 217 9 100560 76
2002-05-02 07:15:06 51°15.983 2°48.065 11.8 220 9 100560 76
2002-05-02 07:15:10 51°15.987 2°48.041 10.4 218 9 100550 76
2002-05-02 07:15:16 51°15.996 2°48.007 12.2 219 9 100550 76
2002-05-02 07:15:21 51°16.001 2°47.978 10.6 217 9 100550 76
2002-05-02 07:15:26 51°16.008 2°47.949 11 220 9 100550 76
2002-05-02 07:15:31 51°16.013 2°47.92 10.6 214 9 100550 76
2002-05-02 07:15:36 51°16.02 2°47.891 11.4 219 9 100550 76
2002-05-02 07:15:41 51°16.026 2°47.862 11.5 219 9 100550 76
2002-05-02 07:15:45 51°16.031 2°47.839 10.3 220 9 100550 76
2002-05-02 07:15:50 51°16.037 2°47.81 10.4 216 9 100550 76
2002-05-02 07:15:56 51°16.046 2°47.776 11.1 219 9 100550 76
2002-05-02 07:16:00 51°16.051 2°47.753 10.8 220 9 100550 77
2002-05-02 07:16:06 51°16.06 2°47.719 10.4 224 9 100550 77
2002-05-02 07:16:11 51°16.066 2°47.691 12.1 224 9.1 100550 77
2002-05-02 07:16:15 51°16.072 2°47.668 11.1 224 9.1 100550 77
2002-05-02 07:16:20 51°16.079 2°47.639 11.6 226 9.1 100550 77
2002-05-02 07:16:26 51°16.088 2°47.605 11.8 225 9.1 100550 77
2002-05-02 07:16:30 51°16.093 2°47.583 11.1 222 9.1 100560 77
2002-05-02 07:16:36 51°16.102 2°47.548 12.5 220 9.1 100560 77
2002-05-02 07:16:40 51°16.107 2°47.526 12.2 224 9.1 100560 77
2002-05-02 07:16:46 51°16.116 2°47.492 11.3 220 9.1 100560 77
2002-05-02 07:16:51 51°16.122 2°47.463 12 225 9.1 100560 77
2002-05-02 07:16:56 51°16.129 2°47.435 11.3 222 9.1 100560 77
2002-05-02 07:17:01 51°16.136 2°47.407 12 224 9.1 100550 77
2002-05-02 07:17:05 51°16.141 2°47.384 11.3 226 9.1 100550 77
2002-05-02 07:17:10 51°16.148 2°47.355 12.7 224 9 100560 77
2002-05-02 07:17:16 51°16.155 2°47.321 11.6 221 9 100560 77
2002-05-02 07:17:20 51°16.16 2°47.298 12.2 222 9 100550 76
2002-05-02 07:17:26 51°16.167 2°47.263 11.8 219 9 100550 76
2002-05-02 07:17:31 51°16.174 2°47.235 11.4 223 9 100550 76
2002-05-02 07:17:36 51°16.18 2°47.206 10.3 221 9 100550 76
2002-05-02 07:17:40 51°16.185 2°47.183 10.4 221 9 100550 76
2002-05-02 07:17:46 51°16.192 2°47.148 10.5 223 9 100550 76
2002-05-02 07:17:51 51°16.199 2°47.12 11.9 223 9 100550 76
2002-05-02 07:17:55 51°16.204 2°47.097 11.2 220 9 100550 76
2002-05-02 07:18:01 51°16.212 2°47.063 11.9 222 9 100560 76
2002-05-02 07:18:06 51°16.218 2°47.034 11.8 217 9 100560 76
2002-05-02 07:18:11 51°16.224 2°47.006 10.9 222 9 100560 76
2002-05-02 07:18:15 51°16.23 2°46.983 10.2 220 9 100560 76
2002-05-02 07:18:21 51°16.238 2°46.949 11.9 225 9 100550 76
2002-05-02 07:18:26 51°16.244 2°46.92 11.9 223 9 100550 76
2002-05-02 07:18:30 51°16.249 2°46.897 11 222 9 100550 76
2002-05-02 07:18:36 51°16.257 2°46.863 11.1 222 9 100550 76
2002-05-02 07:18:40 51°16.262 2°46.84 11.8 224 9 100560 76
2002-05-02 07:18:46 51°16.269 2°46.806 12.2 221 9 100560 76
2002-05-02 07:18:51 51°16.275 2°46.777 11.8 220 9 100560 76
2002-05-02 07:18:55 51°16.279 2°46.754 11 222 9 100560 76
2002-05-02 07:19:01 51°16.286 2°46.719 11.9 220 9 100560 76
2002-05-02 07:19:05 51°16.291 2°46.696 11.5 221 9 100560 76
2002-05-02 07:19:11 51°16.298 2°46.661 11.7 218 9 100560 76
2002-05-02 07:19:16 51°16.304 2°46.633 10.8 220 9 100560 76
2002-05-02 07:19:21 51°16.31 2°46.604 10.1 219 9 100560 76
2002-05-02 07:19:26 51°16.316 2°46.575 11.3 218 9 100560 76
2002-05-02 07:19:31 51°16.321 2°46.547 10.9 219 9 100560 76
2002-05-02 07:19:35 51°16.326 2°46.524 10.1 224 9 100560 76
2002-05-02 07:19:40 51°16.332 2°46.496 11.4 224 9 100560 76
2002-05-02 07:19:46 51°16.34 2°46.462 10.4 218 9 100560 76
2002-05-02 07:19:51 51°16.345 2°46.433 11.5 216 9 100560 76
2002-05-02 07:19:56 51°16.351 2°46.405 10.7 220 9 100560 76
2002-05-02 07:20:00 51°16.355 2°46.382 10.4 218 9 100560 76
2002-05-02 07:20:06 51°16.361 2°46.347 11.2 219 9 100560 76
2002-05-02 07:20:10 51°16.365 2°46.325 10.7 218 9 100560 77
2002-05-02 07:20:16 51°16.371 2°46.29 9.8 218 9 100560 77
2002-05-02 07:20:20 51°16.375 2°46.267 10.6 221 9 100560 77
2002-05-02 07:20:26 51°16.381 2°46.232 11.7 219 9 100560 77
2002-05-02 07:20:30 51°16.385 2°46.208 10.4 218 9 100560 77
2002-05-02 07:20:35 51°16.39 2°46.179 10.9 219 9 100560 77
2002-05-02 07:20:40 51°16.395 2°46.15 11.1 220 9 100560 77
2002-05-02 07:20:46 51°16.401 2°46.115 10.1 222 9 100560 77
2002-05-02 07:20:51 51°16.406 2°46.085 10.9 223 9 100560 77
2002-05-02 07:20:56 51°16.411 2°46.056 11 222 9 100560 77
2002-05-02 07:21:01 51°16.416 2°46.026 10.6 219 9 100560 77
2002-05-02 07:21:06 51°16.421 2°45.997 10.5 220 9 100560 77
2002-05-02 07:21:11 51°16.427 2°45.968 11 221 9.1 100560 77
2002-05-02 07:21:16 51°16.431 2°45.938 11.6 221 9.1 100560 77
2002-05-02 07:21:21 51°16.437 2°45.909 11.3 222 9 100560 77
2002-05-02 07:21:27 51°16.443 2°45.873 10.1 219 9 100560 77
2002-05-02 07:21:31 51°16.447 2°45.85 9.8 221 9 100560 77
2002-05-02 07:21:36 51°16.452 2°45.821 10 220 9 100560 77
2002-05-02 07:21:41 51°16.458 2°45.791 11.7 220 9 100560 77
2002-05-02 07:21:46 51°16.463 2°45.762 11.5 226 9 100560 77
2002-05-02 07:21:51 51°16.469 2°45.733 10.4 221 9 100560 76
2002-05-02 07:21:55 51°16.474 2°45.71 11.2 224 9 100560 76
2002-05-02 07:22:01 51°16.481 2°45.675 11.1 220 9 100570 76
2002-05-02 07:22:06 51°16.488 2°45.647 11.6 224 9 100570 76
2002-05-02 07:22:11 51°16.493 2°45.618 11.4 220 9 100560 76
2002-05-02 07:22:16 51°16.501 2°45.59 11.5 225 9 100560 76
2002-05-02 07:22:20 51°16.506 2°45.567 11 217 9 100570 76
2002-05-02 07:22:26 51°16.516 2°45.534 11.2 225 9 100570 76
2002-05-02 07:22:30 51°16.522 2°45.511 10.9 220 9 100560 76
2002-05-02 07:22:36 51°16.533 2°45.479 10 227 9 100560 76
2002-05-02 07:22:41 51°16.542 2°45.452 10.5 221 9 100560 76
2002-05-02 07:22:46 51°16.553 2°45.426 11.4 228 9 100560 76
2002-05-02 07:22:50 51°16.561 2°45.405 10.8 226 9 100560 76
2002-05-02 07:22:56 51°16.575 2°45.376 10.7 231 9 100560 76
2002-05-02 07:23:01 51°16.586 2°45.352 11.5 229 9 100570 76
2002-05-02 07:23:05 51°16.597 2°45.334 11.3 228 9 100570 76
2002-05-02 07:23:11 51°16.611 2°45.305 11.5 226 9 100560 76
2002-05-02 07:23:16 51°16.625 2°45.284 11.3 231 9 100560 76
2002-05-02 07:23:20 51°16.635 2°45.266 10.8 225 9 100560 76
2002-05-02 07:23:26 51°16.653 2°45.243 11.2 231 9 100560 76
2002-05-02 07:23:31 51°16.666 2°45.222 11.8 227 9 100560 76
2002-05-02 07:23:35 51°16.679 2°45.207 11.3 233 9 100560 76
2002-05-02 07:23:40 51°16.693 2°45.186 12 231 9 100560 76
2002-05-02 07:23:46 51°16.712 2°45.165 11.8 235 9 100560 76
2002-05-02 07:23:51 51°16.726 2°45.144 10.9 231 9 100560 76
2002-05-02 07:23:56 51°16.742 2°45.128 11.4 234 9 100560 76
2002-05-02 07:24:00 51°16.754 2°45.112 11.7 230 9 100560 76
2002-05-02 07:24:05 51°16.77 2°45.094 10.5 234 9 100560 76
2002-05-02 07:24:11 51°16.788 2°45.072 12 231 9 100560 76
2002-05-02 07:24:16 51°16.804 2°45.055 11.3 234 9 100560 76
2002-05-02 07:24:20 51°16.816 2°45.039 10.8 231 9 100560 76
2002-05-02 07:24:26 51°16.834 2°45.018 11.3 231 9 100560 76
2002-05-02 07:24:31 51°16.849 2°44.998 11 230 9 100570 76
2002-05-02 07:24:36 51°16.865 2°44.98 10.6 230 9 100570 76
2002-05-02 07:24:41 51°16.879 2°44.96 11.9 230 9 100570 76
2002-05-02 07:24:46 51°16.895 2°44.942 11.8 231 9 100570 76
2002-05-02 07:24:51 51°16.91 2°44.922 11.2 232 9 100560 76
2002-05-02 07:24:56 51°16.925 2°44.904 12 233 9 100560 76
2002-05-02 07:25:01 51°16.94 2°44.883 10.7 234 9 100570 76
2002-05-02 07:25:06 51°16.955 2°44.865 11.2 231 9 100570 76
2002-05-02 07:25:10 51°16.967 2°44.849 10.4 232 9 100560 76
2002-05-02 07:25:15 51°16.981 2°44.829 11.2 231 9 100560 76
2002-05-02 07:25:21 51°16.999 2°44.805 11.1 234 9 100560 76
2002-05-02 07:25:26 51°17.014 2°44.786 11.7 230 9 100560 76
2002-05-02 07:25:31 51°17.029 2°44.766 11.6 237 9 100570 76
2002-05-02 07:25:36 51°17.043 2°44.746 10.9 231 9 100570 76
2002-05-02 07:25:41 51°17.058 2°44.727 11.6 235 9 100570 76
2002-05-02 07:25:46 51°17.073 2°44.706 12.4 228 9 100570 76
2002-05-02 07:25:51 51°17.088 2°44.687 11.1 238 9 100570 76
2002-05-02 07:25:56 51°17.102 2°44.667 11.6 228 9 100570 76
2002-05-02 07:26:00 51°17.115 2°44.652 10.9 234 9 100560 77
2002-05-02 07:26:06 51°17.132 2°44.628 11 228 9 100560 77
2002-05-02 07:26:11 51°17.147 2°44.609 11.6 236 9 100560 76
2002-05-02 07:26:16 51°17.161 2°44.588 11.6 229 9 100560 76
2002-05-02 07:26:20 51°17.174 2°44.574 11.3 238 9 100560 76
2002-05-02 07:26:26 51°17.191 2°44.55 11.6 233 9 100560 76
2002-05-02 07:26:29 51°17.201 2°44.54 11.2 237 9 100560 76
2002-05-02 07:26:36 51°17.222 2°44.513 11.3 231 9 100560 76
2002-05-02 07:26:41 51°17.238 2°44.497 11.4 235 9 100560 76
2002-05-02 07:26:46 51°17.254 2°44.48 10.6 234 9 100560 76
2002-05-02 07:26:51 51°17.271 2°44.465 11.1 237 8.9 100570 76
2002-05-02 07:26:56 51°17.287 2°44.448 11.1 234 8.9 100570 76
2002-05-02 07:27:01 51°17.304 2°44.434 10.9 238 8.9 100560 77
2002-05-02 07:27:06 51°17.32 2°44.419 11.2 238 8.9 100560 77
2002-05-02 07:27:11 51°17.338 2°44.406 10.5 240 8.9 100560 76
2002-05-02 07:27:15 51°17.351 2°44.396 10.1 241 8.9 100560 76
2002-05-02 07:27:20 51°17.367 2°44.386 10.4 240 8.9 100560 77
2002-05-02 07:27:26 51°17.386 2°44.375 10.4 240 8.9 100560 77
2002-05-02 07:27:30 51°17.399 2°44.369 10.3 245 8.9 100560 77
2002-05-02 07:27:36 51°17.417 2°44.361 10.1 244 8.9 100560 77
2002-05-02 07:27:40 51°17.429 2°44.357 9.5 246 9 100560 77
2002-05-02 07:27:46 51°17.447 2°44.354 9.4 249 9 100560 77
2002-05-02 07:27:51 51°17.461 2°44.353 9 253 8.9 100570 77
2002-05-02 07:27:56 51°17.475 2°44.354 8.3 257 8.9 100570 77
2002-05-02 07:28:00 51°17.484 2°44.356 7.9 259 9 100570 77
2002-05-02 07:28:05 51°17.496 2°44.359 7.7 262 9 100570 77
2002-05-02 07:28:10 51°17.508 2°44.363 7.1 261 8.9 100570 77
2002-05-02 07:28:16 51°17.52 2°44.368 6.9 267 8.9 100570 77
2002-05-02 07:28:20 51°17.528 2°44.372 6.5 263 8.9 100560 77
2002-05-02 07:28:26 51°17.539 2°44.378 6.3 267 8.9 100560 77
2002-05-02 07:28:31 51°17.547 2°44.382 6.3 271 8.9 100570 77
2002-05-02 07:28:36 51°17.555 2°44.386 6 275 8.9 100570 77
2002-05-02 07:28:40 51°17.56 2°44.39 5.9 276 8.9 100570 77
2002-05-02 07:28:46 51°17.568 2°44.396 5.7 279 8.9 100570 77
2002-05-02 07:28:51 51°17.573 2°44.401 5.2 284 9 100570 78
2002-05-02 07:28:55 51°17.576 2°44.405 4.9 285 9 100570 78
2002-05-02 07:29:01 51°17.581 2°44.411 4.9 298 9 100570 78
2002-05-02 07:29:06 51°17.584 2°44.416 4.3 300 9 100570 78
2002-05-02 07:29:10 51°17.587 2°44.419 4.4 301 9 100580 78
2002-05-02 07:29:15 51°17.589 2°44.423 3.5 299 9 100580 78
2002-05-02 07:29:20 51°17.591 2°44.426 1.8 332 9 100580 77
2002-05-02 07:29:26 51°17.592 2°44.43 1.3 334 9 100580 77
2002-05-02 07:29:30 51°17.593 2°44.432 0.7 348 8.9 100580 77
2002-05-02 07:29:36 51°17.594 2°44.434 1.3 337 8.9 100580 77
2002-05-02 07:29:41 51°17.595 2°44.437 1 346 8.9 100580 77
2002-05-02 07:29:46 51°17.596 2°44.439 1 341 8.9 100580 77
2002-05-02 07:29:51 51°17.597 2°44.441 3.5 355 8.9 100580 77
2002-05-02 07:29:56 51°17.597 2°44.443 3.4 353 8.9 100580 77
2002-05-02 07:30:00 51°17.597 2°44.445 3.1 1 8.9 100580 77
2002-05-02 07:30:06 51°17.598 2°44.447 3 4 8.9 100580 77
2002-05-02 07:30:11 51°17.598 2°44.449 3.4 355 8.9 100580 77
2002-05-02 07:30:16 51°17.599 2°44.451 3.1 350 8.9 100580 77
2002-05-02 07:30:21 51°17.599 2°44.453 2.7 1 8.9 100580 78
2002-05-02 07:30:25 51°17.6 2°44.454 2.7 359 8.9 100580 78
2002-05-02 07:30:30 51°17.6 2°44.456 2.8 354 8.9 100580 77
2002-05-02 07:30:36 51°17.601 2°44.458 2.9 1 8.9 100580 77
2002-05-02 07:30:40 51°17.601 2°44.46 3.2 350 8.9 100590 77
2002-05-02 07:30:45 51°17.601 2°44.461 3.2 348 8.9 100590 77
2002-05-02 07:30:51 51°17.602 2°44.463 2.5 357 8.9 100580 77
2002-05-02 07:30:55 51°17.602 2°44.465 2.6 2 8.9 100580 77
2002-05-02 07:31:00 51°17.602 2°44.466 2.5 340 8.9 100580 77
2002-05-02 07:31:06 51°17.603 2°44.468 1.6 335 8.9 100580 77
2002-05-02 07:31:11 51°17.603 2°44.47 2.6 359 8.9 100590 77
2002-05-02 07:31:15 51°17.603 2°44.471 2.1 353 8.9 100590 77
2002-05-02 07:31:20 51°17.604 2°44.472 2.7 351 8.9 100580 77
2002-05-02 07:31:26 51°17.604 2°44.474 2.8 348 8.9 100580 77
2002-05-02 07:31:31 51°17.604 2°44.476 2 350 8.9 100590 77
2002-05-02 07:31:35 51°17.605 2°44.477 1.4 337 8.9 100590 77
2002-05-02 07:31:40 51°17.605 2°44.478 0.5 343 8.9 100580 77
2002-05-02 07:31:46 51°17.606 2°44.48 0.5 350 8.9 100580 77
2002-05-02 07:31:51 51°17.606 2°44.481 2.1 335 8.9 100590 77
2002-05-02 07:31:56 51°17.606 2°44.482 1.8 343 8.9 100590 77
2002-05-02 07:32:00 51°17.607 2°44.483 0.9 340 8.9 100580 77
2002-05-02 07:32:05 51°17.607 2°44.484 1.7 347 8.9 100580 77
2002-05-02 07:32:10 51°17.607 2°44.485 1.1 343 8.9 100580 77
2002-05-02 07:32:16 51°17.608 2°44.487 0.4 332 8.9 100580 77
2002-05-02 07:32:20 51°17.608 2°44.488 0.4 341 8.9 100590 77
2002-05-02 07:32:25 51°17.608 2°44.489 1 333 8.9 100590 77
2002-05-02 07:32:31 51°17.609 2°44.49 0.3 333 8.9 100580 78
2002-05-02 07:32:36 51°17.609 2°44.491 0.3 324 8.9 100580 78
2002-05-02 07:32:41 51°17.61 2°44.492 0.8 343 8.9 100580 78
2002-05-02 07:32:46 51°17.61 2°44.493 0.3 329 8.9 100580 78
2002-05-02 07:32:51 51°17.611 2°44.494 1.2 322 8.9 100580 78
2002-05-02 07:32:56 51°17.611 2°44.495 0.7 328 8.9 100580 78
2002-05-02 07:33:01 51°17.612 2°44.496 0.5 331 8.9 100580 78
2002-05-02 07:33:06 51°17.612 2°44.497 1.1 334 8.9 100580 78
2002-05-02 07:33:11 51°17.613 2°44.498 0.7 334 8.9 100590 78
2002-05-02 07:33:16 51°17.613 2°44.499 0.9 311 8.9 100590 78
2002-05-02 07:33:20 51°17.613 2°44.499 1.2 310 8.9 100580 78
2002-05-02 07:33:25 51°17.614 2°44.5 1 336 8.9 100580 78
2002-05-02 07:33:31 51°17.614 2°44.501 1 323 8.9 100580 78
2002-05-02 07:33:36 51°17.615 2°44.501 1.8 316 8.9 100580 78
2002-05-02 07:33:40 51°17.615 2°44.502 1.8 308 8.9 100590 78
2002-05-02 07:33:45 51°17.616 2°44.503 2 323 8.9 100590 78
2002-05-02 07:33:51 51°17.616 2°44.504 1.6 320 8.9 100580 78
2002-05-02 07:33:56 51°17.617 2°44.504 1.7 315 8.9 100580 78
2002-05-02 07:34:00 51°17.617 2°44.505 2 303 8.9 100590 78
2002-05-02 07:34:06 51°17.618 2°44.506 2 309 8.9 100590 78
2002-05-02 07:34:11 51°17.618 2°44.506 2.1 315 8.9 100580 78
2002-05-02 07:34:16 51°17.619 2°44.507 2.2 316 8.9 100580 78
2002-05-02 07:34:21 51°17.619 2°44.508 2.6 305 8.9 100590 78
2002-05-02 07:34:26 51°17.619 2°44.508 2.8 317 8.9 100590 78
2002-05-02 07:34:31 51°17.62 2°44.509 2.3 308 8.9 100580 78
2002-05-02 07:34:36 51°17.62 2°44.509 2 297 8.9 100580 78
2002-05-02 07:34:40 51°17.621 2°44.51 2.7 295 8.9 100590 78
2002-05-02 07:34:46 51°17.621 2°44.51 3.1 310 8.9 100590 78
2002-05-02 07:34:51 51°17.622 2°44.511 2.9 306 8.9 100580 78
2002-05-02 07:34:56 51°17.622 2°44.511 3.3 303 8.9 100580 78
2002-05-02 07:35:00 51°17.623 2°44.512 2.9 294 8.9 100580 78
2002-05-02 07:35:05 51°17.624 2°44.514 3.4 306 8.9 100580 78
2002-05-02 07:35:10 51°17.625 2°44.516 4.3 292 8.9 100580 78
2002-05-02 07:35:16 51°17.628 2°44.521 4.3 294 8.9 100580 78
2002-05-02 07:35:20 51°17.629 2°44.525 3.4 301 8.9 100580 78
2002-05-02 07:35:26 51°17.632 2°44.533 3.7 302 8.9 100580 78
2002-05-02 07:35:30 51°17.634 2°44.539 3.6 315 8.9 100580 78
2002-05-02 07:35:36 51°17.635 2°44.55 3.6 315 8.9 100580 78
2002-05-02 07:35:40 51°17.636 2°44.558 2.2 312 8.9 100580 78
2002-05-02 07:35:46 51°17.635 2°44.57 1.5 337 8.9 100580 78
2002-05-02 07:35:51 51°17.633 2°44.58 0.6 319 8.9 100580 78
2002-05-02 07:35:56 51°17.63 2°44.59 0.4 326 8.9 100580 78
2002-05-02 07:36:00 51°17.627 2°44.597 0.5   8.9 100580 78
2002-05-02 07:36:06 51°17.622 2°44.607 0.3 344 8.9 100580 78
2002-05-02 07:36:11 51°17.616 2°44.613 0.1 350 8.9 100580 78
2002-05-02 07:36:16 51°17.609 2°44.618 0.1 123 8.9 100580 78
2002-05-02 07:36:20 51°17.604 2°44.621 0.7 128 8.9 100580 78
2002-05-02 07:36:26 51°17.595 2°44.623 2.2 169 8.9 100580 78
2002-05-02 07:36:31 51°17.588 2°44.622 3.3 190 8.9 100580 78
2002-05-02 07:36:36 51°17.58 2°44.62 2.5 159 8.9 100580 78
2002-05-02 07:36:40 51°17.574 2°44.616 2.9 180 8.9 100590 78
2002-05-02 07:36:45 51°17.567 2°44.611 3.8 177 8.9 100590 78
2002-05-02 07:36:50 51°17.561 2°44.603 3.2 181 8.9 100580 78
2002-05-02 07:36:56 51°17.554 2°44.592 3.7 184 8.9 100580 78
2002-05-02 07:37:00 51°17.55 2°44.583 3.8 186 8.9 100580 78
2002-05-02 07:37:06 51°17.544 2°44.569 5 191 8.9 100580 78
2002-05-02 07:37:11 51°17.54 2°44.556 5.2 193 9 100580 78
2002-05-02 07:37:16 51°17.536 2°44.542 5.3 205 9 100580 78
2002-05-02 07:37:21 51°17.534 2°44.528 5.8 207 9 100580 78
2002-05-02 07:37:25 51°17.532 2°44.517 5.9 205 9 100580 78
2002-05-02 07:37:31 51°17.531 2°44.501 5.4 207 9 100580 78
2002-05-02 07:37:36 51°17.53 2°44.487 5.5 212 9 100580 78
2002-05-02 07:37:41 51°17.531 2°44.475 5.7 215 9 100580 78
2002-05-02 07:37:46 51°17.532 2°44.463 5.7 214 9 100580 78
2002-05-02 07:37:51 51°17.534 2°44.451 6.3 215 9 100580 78
2002-05-02 07:37:56 51°17.535 2°44.439 5.6 210 9 100580 78
2002-05-02 07:38:01 51°17.536 2°44.427 5.7 209 8.9 100580 78
2002-05-02 07:38:06 51°17.537 2°44.416 5.2 207 8.9 100580 78
2002-05-02 07:38:10 51°17.539 2°44.407 5.2 207 9 100580 78
2002-05-02 07:38:15 51°17.54 2°44.396 5 212 9 100580 78
2002-05-02 07:38:20 51°17.542 2°44.387 4.8 215 8.9 100580 78
2002-05-02 07:38:26 51°17.543 2°44.376 4.7 215 8.9 100580 78
2002-05-02 07:38:30 51°17.545 2°44.369 4.6 211 8.9 100580 78
2002-05-02 07:38:36 51°17.546 2°44.36 4.4 211 8.9 100580 78
2002-05-02 07:38:40 51°17.547 2°44.355 4.5 207 9 100580 78
2002-05-02 07:38:45 51°17.548 2°44.351 3.7 198 9 100580 78
2002-05-02 07:38:51 51°17.548 2°44.347 4.5 196 9 100580 78
2002-05-02 07:38:56 51°17.549 2°44.345 3.4 182 9 100580 78
2002-05-02 07:39:01 51°17.549 2°44.344 3.5 169 9 100580 78
2002-05-02 07:39:06 51°17.549 2°44.345 3.6 169 9 100580 78
2002-05-02 07:39:10 51°17.55 2°44.344 3.5 167 9 100580 78
2002-05-02 07:39:16 51°17.55 2°44.344 3.1 172 9 100580 78
2002-05-02 07:39:21 51°17.55 2°44.344 2.8 182 9 100580 78
2002-05-02 07:39:27 51°17.55 2°44.343 3.3 174 9 100580 78
2002-05-02 07:39:31 51°17.551 2°44.343 3.1 180 9 100580 79
2002-05-02 07:39:37 51°17.551 2°44.342 2.7 182 9 100580 79
2002-05-02 07:39:41 51°17.551 2°44.342 2.8 180 9 100580 79
2002-05-02 07:39:47 51°17.551 2°44.342 2.9 179 9 100580 79
2002-05-02 07:39:51 51°17.552 2°44.341 2.9 178 9 100580 79
2002-05-02 07:39:56 51°17.552 2°44.341 3.1 174 9 100580 79
2002-05-02 07:40:01 51°17.552 2°44.34 2.9 180 9 100580 79
2002-05-02 07:40:07 51°17.552 2°44.34 3.1 177 9 100580 79
2002-05-02 07:40:11 51°17.552 2°44.339 2.9 175 9 100580 79
2002-05-02 07:40:17 51°17.552 2°44.339 3.9 170 9 100580 79
2002-05-02 07:40:21 51°17.553 2°44.338 3.1 170 9 100580 78
2002-05-02 07:40:26 51°17.552 2°44.338 3.4 164 9 100580 78
2002-05-02 07:40:31 51°17.553 2°44.337 3.5 158 9 100580 78
2002-05-02 07:40:36 51°17.553 2°44.336 2.9 171 9 100580 78
2002-05-02 07:40:40 51°17.553 2°44.335 2.9 168 9 100580 79
2002-05-02 07:40:46 51°17.553 2°44.334 2.2 166 9 100580 79
2002-05-02 07:40:50 51°17.553 2°44.333 3.7 162 9 100580 78
2002-05-02 07:40:56 51°17.554 2°44.332 3.1 165 9 100580 78
2002-05-02 07:41:00 51°17.554 2°44.332 2.8 160 9 100580 78
2002-05-02 07:41:06 51°17.554 2°44.33 3.3 159 9 100580 78
2002-05-02 07:41:11 51°17.554 2°44.329 3.1 175 9 100580 79
2002-05-02 07:41:16 51°17.554 2°44.328 3.6 159 9 100580 79
2002-05-02 07:41:21 51°17.554 2°44.328 4 164 9 100580 78
2002-05-02 07:41:25 51°17.554 2°44.327 3.8 161 9 100580 78
2002-05-02 07:41:29 51°17.554 2°44.326 3.6 168 9 100580 79
2002-05-02 07:41:36 51°17.554 2°44.324 3.6 173 9 100580 79
2002-05-02 07:41:40 51°17.554 2°44.324 3.4 171 9 100590 79
2002-05-02 07:41:46 51°17.554 2°44.322 3.7 172 9 100590 79
2002-05-02 07:41:50 51°17.554 2°44.322 2.9 180 9 100580 79
2002-05-02 07:41:56 51°17.554 2°44.32 3.5 176 9 100580 79
2002-05-02 07:41:59 51°17.554 2°44.32 4.2 174 9 100580 78
2002-05-02 07:42:06 51°17.554 2°44.318 4 170 9 100580 78
2002-05-02 07:42:11 51°17.554 2°44.317 3 177 9 100580 78
2002-05-02 07:42:16 51°17.554 2°44.316 3.3 175 9 100580 78
2002-05-02 07:42:21 51°17.554 2°44.315 3.9 171 9 100590 78
2002-05-02 07:42:26 51°17.554 2°44.314 4.1 166 9 100590 78
2002-05-02 07:42:31 51°17.554 2°44.313 4.3 167 9 100580 78
2002-05-02 07:42:35 51°17.554 2°44.312 3.6 162 9 100580 78
2002-05-02 07:42:40 51°17.554 2°44.311 3.6 157 9 100580 78
2002-05-02 07:42:46 51°17.554 2°44.309 3.6 155 9 100580 78
2002-05-02 07:42:51 51°17.554 2°44.308 3.6 157 9 100590 78
2002-05-02 07:42:56 51°17.554 2°44.307 3.6 160 9 100590 78
2002-05-02 07:43:01 51°17.554 2°44.306 3.9 168 9 100580 77
2002-05-02 07:43:06 51°17.554 2°44.305 3.4 172 9 100580 77
2002-05-02 07:43:11 51°17.553 2°44.304 4 168 9 100590 78
2002-05-02 07:43:16 51°17.553 2°44.303 3.9 160 9 100590 78
2002-05-02 07:43:20 51°17.553 2°44.302 3.9 163 9 100580 78
2002-05-02 07:43:26 51°17.553 2°44.3 3.6 159 9 100580 78
2002-05-02 07:43:31 51°17.553 2°44.299 3.9 156 9 100580 79
2002-05-02 07:43:36 51°17.553 2°44.298 3.6 156 9 100580 79
2002-05-02 07:43:41 51°17.553 2°44.297 4.4 165 9 100580 78
2002-05-02 07:43:46 51°17.552 2°44.295 3.7 168 9 100580 78
2002-05-02 07:43:50 51°17.552 2°44.294 3.7 162 9 100590 78
2002-05-02 07:43:56 51°17.552 2°44.293 3.9 166 9 100590 78
2002-05-02 07:44:01 51°17.552 2°44.292 3.3 156 9 100590 78
2002-05-02 07:44:06 51°17.551 2°44.29 3.2 155 9 100590 78
2002-05-02 07:44:11 51°17.551 2°44.289 3.6 165 9 100590 78
2002-05-02 07:44:16 51°17.551 2°44.288 3.4 163 9 100590 78
2002-05-02 07:44:20 51°17.551 2°44.287 3.1 156 9 100590 78
2002-05-02 07:44:26 51°17.55 2°44.285 3.1 155 9 100590 78
2002-05-02 07:44:30 51°17.55 2°44.284 2.8 160 9 100590 78
2002-05-02 07:44:35 51°17.55 2°44.283 3 159 9 100590 78
2002-05-02 07:44:40 51°17.55 2°44.282 3.3 155 9 100590 78
2002-05-02 07:44:46 51°17.55 2°44.28 3.6 161 9 100590 78
2002-05-02 07:44:50 51°17.549 2°44.279 3.4 160 9 100590 79
2002-05-02 07:44:56 51°17.549 2°44.277 3.9 161 9 100590 79
2002-05-02 07:45:01 51°17.549 2°44.276 4.2 161 9 100590 79
2002-05-02 07:45:06 51°17.548 2°44.274 4.1 160 9 100590 79
2002-05-02 07:45:11 51°17.548 2°44.273 3.8 152 9 100590 79
2002-05-02 07:45:16 51°17.548 2°44.271 3.9 159 9 100590 79
2002-05-02 07:45:21 51°17.547 2°44.27 3.6 155 9 100590 79
2002-05-02 07:45:26 51°17.547 2°44.269 3.3 157 9 100590 79
2002-05-02 07:45:30 51°17.547 2°44.268 3.9 158 9 100590 78
2002-05-02 07:45:35 51°17.547 2°44.266 3.2 156 9 100590 78
2002-05-02 07:45:40 51°17.546 2°44.265 4 153 9 100590 78
2002-05-02 07:45:46 51°17.546 2°44.263 3.7 151 9 100590 78
2002-05-02 07:45:51 51°17.546 2°44.262 3.6 149 9 100590 78
2002-05-02 07:45:56 51°17.545 2°44.26 2.9 149 9 100590 78
2002-05-02 07:46:00 51°17.545 2°44.259 3 152 9 100590 78
2002-05-02 07:46:06 51°17.545 2°44.257 2.9 158 9 100590 78
2002-05-02 07:46:10 51°17.544 2°44.256 3.5 167 9 100590 77
2002-05-02 07:46:16 51°17.544 2°44.254 2.8 157 9 100590 77
2002-05-02 07:46:20 51°17.544 2°44.253 3.4 162 9 100590 78
2002-05-02 07:46:26 51°17.543 2°44.251 4 156 9 100590 78
2002-05-02 07:46:31 51°17.543 2°44.25 3.4 154 8.9 100590 78
2002-05-02 07:46:36 51°17.543 2°44.248 3.6 157 8.9 100590 78
2002-05-02 07:46:40 51°17.542 2°44.247 3.4 155 8.9 100590 78
2002-05-02 07:46:46 51°17.542 2°44.244 3.3 157 8.9 100590 78
2002-05-02 07:46:50 51°17.541 2°44.243 3.5 160 9 100590 79
2002-05-02 07:46:55 51°17.541 2°44.241 3.7 154 9 100590 79
2002-05-02 07:47:01 51°17.541 2°44.24 3.2 155 9 100590 79
2002-05-02 07:47:06 51°17.54 2°44.238 3.6 154 9 100590 79
2002-05-02 07:47:11 51°17.54 2°44.237 3.1 151 9 100590 79
2002-05-02 07:47:15 51°17.54 2°44.235 3.7 150 9 100590 79
2002-05-02 07:47:20 51°17.539 2°44.234 3.1 155 9 100590 79
2002-05-02 07:47:26 51°17.539 2°44.232 3.2 152 9 100590 79
2002-05-02 07:47:31 51°17.538 2°44.23 3.9 153 9 100590 78
2002-05-02 07:47:36 51°17.538 2°44.229 4 157 9 100590 78
2002-05-02 07:47:41 51°17.538 2°44.227 3.7 150 9 100590 78
2002-05-02 07:47:46 51°17.537 2°44.226 4.3 151 9 100590 78
2002-05-02 07:47:51 51°17.537 2°44.224 4.3 149 9 100590 78
2002-05-02 07:47:56 51°17.536 2°44.223 4.1 152 9 100590 78
2002-05-02 07:48:00 51°17.536 2°44.221 3.8 149 9 100590 79
2002-05-02 07:48:06 51°17.535 2°44.219 3.5 154 9 100590 79
2002-05-02 07:48:11 51°17.535 2°44.218 3.8 150 9 100590 78
2002-05-02 07:48:16 51°17.535 2°44.216 3.7 149 9 100590 78
2002-05-02 07:48:21 51°17.534 2°44.214 3.7 150 9 100590 78
2002-05-02 07:48:26 51°17.534 2°44.213 3.3 158 9 100590 78
2002-05-02 07:48:30 51°17.533 2°44.212 4.2 159 8.9 100590 78
2002-05-02 07:48:36 51°17.533 2°44.21 3.9 155 8.9 100590 78
2002-05-02 07:48:40 51°17.532 2°44.209 3.5 152 8.9 100590 78
2002-05-02 07:48:45 51°17.532 2°44.207 3.1 150 8.9 100590 78
2002-05-02 07:48:51 51°17.531 2°44.205 3.4 149 8.9 100590 78
2002-05-02 07:48:56 51°17.531 2°44.204 2.6 148 8.9 100590 78
2002-05-02 07:49:00 51°17.53 2°44.202 3.4 154 8.9 100590 78
2002-05-02 07:49:06 51°17.53 2°44.2 3.8 156 8.9 100590 78
2002-05-02 07:49:11 51°17.529 2°44.199 3.8 155 8.9 100590 78
2002-05-02 07:49:16 51°17.529 2°44.197 3.7 154 8.9 100590 78
2002-05-02 07:49:21 51°17.529 2°44.196 3.9 151 8.9 100590 78
2002-05-02 07:49:26 51°17.528 2°44.194 3.3 149 8.9 100590 78
2002-05-02 07:49:31 51°17.528 2°44.192 3.6 149 8.9 100590 78
2002-05-02 07:49:36 51°17.527 2°44.191 3.5 145 8.9 100590 78
2002-05-02 07:49:41 51°17.527 2°44.189 3.4 150 8.9 100590 78
2002-05-02 07:49:46 51°17.527 2°44.188 3.2 159 8.9 100590 78
2002-05-02 07:49:51 51°17.526 2°44.186 3.6 162 8.9 100590 78
2002-05-02 07:49:56 51°17.526 2°44.184 2.6 164 8.9 100590 78
2002-05-02 07:50:01 51°17.525 2°44.183 3.2 161 8.9 100590 78
2002-05-02 07:50:06 51°17.525 2°44.181 3.4 162 8.9 100590 78
2002-05-02 07:50:11 51°17.525 2°44.18 3.5 159 8.9 100590 78
2002-05-02 07:50:16 51°17.524 2°44.178 3 163 8.9 100590 78
2002-05-02 07:50:21 51°17.524 2°44.176 3 165 8.9 100590 78
2002-05-02 07:50:25 51°17.524 2°44.175 3.1 167 8.9 100590 78
2002-05-02 07:50:31 51°17.523 2°44.173 3.1 158 8.9 100590 78
2002-05-02 07:50:36 51°17.523 2°44.171 2.9 157 8.9 100590 78
2002-05-02 07:50:41 51°17.522 2°44.17 3 154 8.9 100600 79
2002-05-02 07:50:46 51°17.522 2°44.168 3.2 157 8.9 100600 79
2002-05-02 07:50:50 51°17.522 2°44.167 3.3 159 8.9 100600 79
2002-05-02 07:50:55 51°17.521 2°44.165 2.9 158 8.9 100600 79
2002-05-02 07:51:00 51°17.521 2°44.163 3.3 171 8.9 100600 78
2002-05-02 07:51:06 51°17.521 2°44.162 4 168 8.9 100600 78
2002-05-02 07:51:11 51°17.52 2°44.16 3.5 152 8.9 100590 79
2002-05-02 07:51:15 51°17.52 2°44.158 3.3 154 8.9 100590 79
2002-05-02 07:51:20 51°17.52 2°44.157 3.2 157 8.9 100590 79
2002-05-02 07:51:26 51°17.519 2°44.155 3.2 151 8.9 100590 79
2002-05-02 07:51:30 51°17.519 2°44.154 3.7 155 8.9 100600 79
2002-05-02 07:51:36 51°17.518 2°44.152 3.8 156 8.9 100600 79
2002-05-02 07:51:41 51°17.518 2°44.15 4.1 155 8.9 100600 79
2002-05-02 07:51:46 51°17.517 2°44.148 3.5 157 8.9 100600 79
2002-05-02 07:51:50 51°17.517 2°44.147 4.1 155 8.9 100590 79
2002-05-02 07:51:55 51°17.517 2°44.146 4 153 8.9 100590 79
2002-05-02 07:52:00 51°17.516 2°44.144 4.3 158 8.9 100600 79
2002-05-02 07:52:06 51°17.516 2°44.141 3.8 162 8.9 100600 79
2002-05-02 07:52:11 51°17.515 2°44.137 3.9 174 9 100590 79
2002-05-02 07:52:16 51°17.514 2°44.132 3.7 177 9 100590 79
2002-05-02 07:52:20 51°17.514 2°44.128 3.5 186 8.9 100590 79
2002-05-02 07:52:25 51°17.513 2°44.121 4.3 193 8.9 100590 79
2002-05-02 07:52:31 51°17.513 2°44.112 4.9 203 8.9 100590 79
2002-05-02 07:52:35 51°17.514 2°44.105 5.1 205 8.9 100590 79
2002-05-02 07:52:41 51°17.515 2°44.094 5.4 213 8.9 100590 79
2002-05-02 07:52:46 51°17.518 2°44.084 6 218 8.9 100590 79
2002-05-02 07:52:51 51°17.522 2°44.073 5.9 227 8.9 100590 79
2002-05-02 07:52:56 51°17.526 2°44.064 5.8 234 8.9 100590 79
2002-05-02 07:53:00 51°17.531 2°44.057 6.7 236 8.9 100590 79
2002-05-02 07:53:06 51°17.538 2°44.048 6.7 239 8.9 100590 79
2002-05-02 07:53:11 51°17.546 2°44.042 6.7 247 8.9 100590 79
2002-05-02 07:53:16 51°17.554 2°44.038 7 249 8.9 100590 79
2002-05-02 07:53:21 51°17.562 2°44.035 7.2 258 8.9 100590 79
2002-05-02 07:53:26 51°17.57 2°44.035 7.2 262 8.9 100590 79
2002-05-02 07:53:31 51°17.578 2°44.036 7.3 268 8.9 100590 79
2002-05-02 07:53:35 51°17.585 2°44.039 6.8 271 8.9 100590 79
2002-05-02 07:53:41 51°17.594 2°44.045 6.5 278 8.9 100590 79
2002-05-02 07:53:45 51°17.6 2°44.051 5.9 282 8.9 100590 79
2002-05-02 07:53:51 51°17.607 2°44.061 5.4 287 8.9 100580 79
2002-05-02 07:53:56 51°17.612 2°44.072 5.2 290 8.9 100580 79
2002-05-02 07:54:01 51°17.616 2°44.084 4.6 294 8.9 100590 79
2002-05-02 07:54:06 51°17.619 2°44.096 4.8 301 8.9 100590 79
2002-05-02 07:54:10 51°17.62 2°44.106 3.6 298 8.9 100590 79
2002-05-02 07:54:16 51°17.62 2°44.122 3.2 308 8.9 100590 79
2002-05-02 07:54:20 51°17.619 2°44.132 2.6 309 8.9 100600 79
2002-05-02 07:54:26 51°17.615 2°44.147 1.9 319 8.9 100600 79
2002-05-02 07:54:31 51°17.611 2°44.158 1.1 314 8.9 100590 79
2002-05-02 07:54:36 51°17.606 2°44.169 1.6 301 8.9 100590 79
2002-05-02 07:54:40 51°17.601 2°44.178 1.4 305 8.9 100600 79
2002-05-02 07:54:46 51°17.594 2°44.192 1.7 295 8.9 100600 79
2002-05-02 07:54:51 51°17.588 2°44.204 2.2 282 8.9 100590 79
2002-05-02 07:54:56 51°17.582 2°44.217 2.3 287 8.9 100590 79
2002-05-02 07:55:01 51°17.576 2°44.231 2.5 293 8.9 100600 79
2002-05-02 07:55:06 51°17.571 2°44.245 2.7 295 8.9 100600 79
2002-05-02 07:55:11 51°17.567 2°44.26 2.7 296 8.9 100600 79
2002-05-02 07:55:16 51°17.562 2°44.276 3.1 295 8.9 100600 79
2002-05-02 07:55:20 51°17.559 2°44.289 3.3 295 9 100590 79
2002-05-02 07:55:26 51°17.555 2°44.309 3.5 293 9 100590 79
2002-05-02 07:55:31 51°17.551 2°44.325 3.1 296 9 100590 79
2002-05-02 07:55:36 51°17.548 2°44.341 3.3 300 9 100590 79
2002-05-02 07:55:40 51°17.547 2°44.352 2.6 305 9 100600 79
2002-05-02 07:55:46 51°17.544 2°44.368 2.4 295 9 100600 79
2002-05-02 07:55:51 51°17.543 2°44.38 1.9 313 9 100600 79
2002-05-02 07:55:55 51°17.542 2°44.389 2.1 312 9 100600 79
2002-05-02 07:56:00 51°17.542 2°44.4 2.7 297 8.9 100600 79
2002-05-02 07:56:06 51°17.542 2°44.412 2.8 297 8.9 100600 79
2002-05-02 07:56:11 51°17.542 2°44.421 3 302 8.9 100600 79
2002-05-02 07:56:16 51°17.542 2°44.429 2.6 297 8.9 100600 79
2002-05-02 07:56:21 51°17.543 2°44.435 2.8 313 9 100590 79
2002-05-02 07:56:26 51°17.544 2°44.44 2.9 317 9 100590 79
2002-05-02 07:56:31 51°17.545 2°44.443 2.2 319 9 100600 80
2002-05-02 07:56:36 51°17.545 2°44.446 2.1 324 9 100600 80
2002-05-02 07:56:41 51°17.546 2°44.447 3.9 298 9 100600 80
2002-05-02 07:56:46 51°17.546 2°44.447 2.3 315 9 100600 80
2002-05-02 07:56:51 51°17.547 2°44.448 3.6 296 9 100600 80
2002-05-02 07:56:56 51°17.547 2°44.448 4.3 296 9 100600 80
2002-05-02 07:57:01 51°17.547 2°44.449 4 294 9 100600 79
2002-05-02 07:57:05 51°17.548 2°44.449 4 293 9 100600 79
2002-05-02 07:57:11 51°17.549 2°44.45 3.8 291 9 100600 79
2002-05-02 07:57:16 51°17.549 2°44.45 3.9 294 9 100600 79
2002-05-02 07:57:21 51°17.55 2°44.45 3.7 293 9 100600 79
2002-05-02 07:57:26 51°17.55 2°44.45 4 296 9 100600 79
2002-05-02 07:57:31 51°17.551 2°44.45 3.4 288 9 100600 80
2002-05-02 07:57:36 51°17.552 2°44.45 3.4 289 9 100600 80
2002-05-02 07:57:40 51°17.552 2°44.45 3.6 289 9 100600 80
2002-05-02 07:57:46 51°17.553 2°44.45 3.5 288 9 100600 80
2002-05-02 07:57:51 51°17.554 2°44.45 3.6 289 9 100600 80
2002-05-02 07:57:55 51°17.554 2°44.45 3.5 290 9 100600 80
2002-05-02 07:58:01 51°17.555 2°44.45 3.8 291 9 100600 80
2002-05-02 07:58:06 51°17.556 2°44.45 3.9 287 9 100600 80
2002-05-02 07:58:11 51°17.556 2°44.449 3.7 286 9 100600 80
2002-05-02 07:58:15 51°17.557 2°44.449 3.7 291 9 100600 80
2002-05-02 07:58:20 51°17.557 2°44.449 3.6 294 9 100600 80
2002-05-02 07:58:26 51°17.558 2°44.448 3.7 293 9 100600 80
2002-05-02 07:58:30 51°17.559 2°44.448 3.4 290 9 100600 80
2002-05-02 07:58:36 51°17.559 2°44.448 3.3 290 9 100600 80
2002-05-02 07:58:41 51°17.56 2°44.448 3.5 292 9 100600 80
2002-05-02 07:58:46 51°17.561 2°44.447 3.8 293 9 100600 80
2002-05-02 07:58:51 51°17.561 2°44.447 3.7 295 9 100600 80
2002-05-02 07:58:56 51°17.562 2°44.447 3.6 292 9 100600 80
2002-05-02 07:59:00 51°17.562 2°44.446 3.7 294 9 100600 80
2002-05-02 07:59:05 51°17.563 2°44.445 3.7 290 9 100600 80
2002-05-02 07:59:11 51°17.564 2°44.445 4 298 9.1 100600 80
2002-05-02 07:59:16 51°17.565 2°44.445 3.6 294 9.1 100600 80
2002-05-02 07:59:21 51°17.565 2°44.444 3.4 295 9.1 100600 80
2002-05-02 07:59:26 51°17.566 2°44.444 3.8 292 9.1 100600 80
2002-05-02 07:59:31 51°17.566 2°44.443 3.6 281 9.1 100600 80